Location: Wells
(51.2093°N, 2.6446°W)
Time: 18:33:17
(UTC+00:00)

CUTE 1.7 + AOD 2 - Visible Passes

Search period start: 07 March 2026 00:00
Search period end: 17 March 2026 00:00
Orbit: 534 x 548 km, 97.8° (Epoch: 7 March)

Date Brightness Start Highest point End Pass type
(mag) Time Alt. Az. Time Alt. Az. Time Alt. Az.
7 Mar ? 03:33:49 10° NE 03:36:15 16° E 03:38:41 10° SE visible
7 Mar ? 05:07:17 10° N 05:11:09 58° WNW 05:14:24 14° SSW visible
8 Mar ? 03:27:12 10° ENE 03:29:11 13° E 03:31:10 10° ESE visible
8 Mar ? 05:00:16 10° N 05:04:11 69° WNW 05:07:33 13° SSW visible
9 Mar ? 03:20:46 10° ENE 03:22:06 11° E 03:23:25 10° ESE visible
9 Mar ? 04:53:14 10° NNE 04:57:11 82° WNW 05:00:42 13° SSW visible
10 Mar ? 04:46:12 10° NNE 04:50:09 85° ESE 04:53:49 12° SSW visible
11 Mar ? 04:39:10 10° NNE 04:43:06 71° ESE 04:46:56 11° S visible
12 Mar ? 04:32:08 10° NNE 04:36:02 60° ESE 04:39:55 10° S visible
13 Mar ? 04:25:06 10° NNE 04:28:56 50° E 04:32:46 10° S visible
14 Mar ? 04:18:03 10° NNE 04:21:49 42° E 04:25:33 10° S visible
15 Mar ? 04:11:01 10° NNE 04:14:40 35° E 04:18:18 10° SSE visible
15 Mar ? 05:45:47 10° N 05:49:04 26° WNW 05:52:21 10° WSW visible
16 Mar ? 04:03:59 10° NNE 04:07:30 30° E 04:10:59 10° SSE visible
16 Mar ? 05:38:32 10° N 05:41:59 30° WNW 05:45:26 10° SW visible
